Flag for U.S.A. Weather past 2 weeks in Coeur d'Alene, Idaho, U.S.A.

Now
30 °F

Passing clouds.


Feels Like: 24 °F
Forecast: 27 / 35 °F
Wind: 6 mph from Northeast

Location: Coeur d'Alene Weather Reporting System

Current Time: Feb 1, 2015 at 3:12:11 AM

Latest Report: Feb 1, 2015 at 2:35 AM


Visibility: 10 mi

Pressure: 30.23 "Hg

Humidity: 86%

Dew point: 27 °F

Location of Coeur d'AleneLocation

Historic Weather in Coeur d'Alene — Graph

°F

Coeur d'Alene temperature yesterday

Maximum temperature yesterday: 34 °F (at 10:35 AM)
Minimum temperature yesterday: 28 °F (at 11:35 PM)
Average temperature yesterday: 31 °F

Past Weeks' High & Low Weather Summary

 TemperatureHumidityPressure
High55 °F (Jan 25, 2:15 PM)100% (Jan 17, 2:35 AM)30.50 "Hg (Jan 17, 2:35 AM)
Low21 °F (Jan 17, 7:15 AM)67% (Jan 25, 2:15 PM)29.77 "Hg (Jan 18, 4:55 AM)
Average34 °F90%30.24 "Hg
* Reported Jan 17 1:15 AM — Feb 1 1:55 AM, Coeur d'Alene, Weather by CustomWeather, © 2014

Note: Actual official high and low records may vary slightly from our data, if they occured in-between our weather recording intervals... More about our weather records

Advertising

Coeur d'Alene weather history for previous 24 hours

 ConditionsComfort  
Time TempWeatherWind HumidityBarometerVisibility
1:55 AM
Feb 1
28 °FClear.7 mph93%30.24 "Hg10 mi
1:35 AM28 °FClear.5 mph93%30.24 "Hg10 mi
1:15 AM28 °FClear.6 mph86%30.24 "Hg10 mi
12:55 AM28 °FClear.5 mph93%30.24 "Hg10 mi
12:35 AM28 °FClear.5 mph93%30.24 "Hg10 mi
12:15 AM28 °FClear.3 mph86%30.24 "Hg10 mi
11:55 PM
Jan 31
28 °FClear.6 mph86%30.25 "Hg10 mi
11:35 PM28 °FClear.6 mph93%30.26 "Hg10 mi
11:15 PM30 °FPassing clouds.5 mph86%30.27 "Hg10 mi
10:55 PM30 °FPassing clouds.5 mph86%30.27 "Hg10 mi
10:35 PM30 °FOvercast.5 mph86%30.27 "Hg10 mi
10:15 PM30 °FOvercast.No wind86%30.28 "Hg10 mi
9:55 PM30 °FOvercast.No wind86%30.28 "Hg9 mi
9:35 PM30 °FOvercast.No wind86%30.28 "Hg10 mi
9:15 PM30 °FOvercast.No wind86%30.27 "Hg10 mi
8:55 PM30 °FOvercast.No wind86%30.28 "Hg10 mi
8:35 PM30 °FMostly cloudy.No wind86%30.28 "Hg10 mi
8:15 PM30 °FOvercast.No wind86%30.28 "Hg10 mi
7:55 PM30 °FOvercast.No wind86%30.27 "Hg10 mi
7:35 PM30 °FOvercast.No wind86%30.27 "Hg10 mi
7:15 PM30 °FOvercast.No wind86%30.27 "Hg10 mi
6:55 PM30 °FPassing clouds.No wind86%30.27 "Hg10 mi
6:35 PM30 °FPassing clouds.No wind86%30.27 "Hg10 mi
6:15 PM32 °FOvercast.No wind80%30.27 "Hg10 mi
5:55 PM32 °FOvercast.No wind80%30.26 "Hg10 mi
5:35 PM34 °FOvercast.5 mph81%30.27 "Hg10 mi
5:15 PM34 °FOvercast.No wind81%30.26 "Hg10 mi
4:55 PM34 °FOvercast.No wind75%30.26 "Hg10 mi
4:35 PM34 °FOvercast.No wind75%30.26 "Hg10 mi
4:15 PM34 °FOvercast.No wind75%30.26 "Hg10 mi
3:55 PM34 °FOvercast.No wind75%30.27 "Hg10 mi
3:35 PM34 °FOvercast.No wind75%30.27 "Hg10 mi
3:15 PM34 °FOvercast.No wind75%30.26 "Hg10 mi
2:55 PM34 °FOvercast.3 mph75%30.25 "Hg10 mi
2:35 PM34 °FOvercast.5 mph75%30.26 "Hg10 mi
2:15 PM34 °FMostly cloudy.7 mph81%30.27 "Hg10 mi
1:55 PM34 °FOvercast.7 mph75%30.26 "Hg10 mi
1:35 PM34 °FOvercast.8 mph81%30.26 "Hg10 mi
1:15 PM34 °FOvercast.8 mph81%30.26 "Hg10 mi
12:35 PM34 °FOvercast.7 mph75%30.27 "Hg10 mi
12:15 PM34 °FOvercast.8 mph75%30.27 "Hg10 mi
11:55 AM34 °FOvercast.8 mph81%30.27 "Hg10 mi
11:35 AM34 °FOvercast.8 mph81%30.27 "Hg10 mi
11:15 AM34 °FOvercast.7 mph81%30.27 "Hg10 mi
10:55 AM34 °FOvercast.8 mph81%30.27 "Hg10 mi
10:35 AM34 °FOvercast.7 mph81%30.28 "Hg10 mi
10:15 AM32 °FMostly cloudy.8 mph80%30.27 "Hg10 mi
9:55 AM32 °FOvercast.6 mph80%30.27 "Hg10 mi
9:35 AM32 °FOvercast.5 mph80%30.27 "Hg10 mi
9:15 AM32 °FOvercast.5 mph80%30.27 "Hg10 mi
8:55 AM30 °FOvercast.5 mph86%30.26 "Hg10 mi
8:35 AM30 °FOvercast.6 mph86%30.26 "Hg10 mi
8:15 AM30 °FOvercast.3 mph86%30.25 "Hg10 mi
7:55 AM30 °FOvercast.7 mph86%30.25 "Hg10 mi
7:35 AM30 °FOvercast.9 mph86%30.24 "Hg10 mi
7:15 AM30 °FOvercast.8 mph86%30.24 "Hg10 mi
6:55 AM30 °FOvercast.7 mph86%30.24 "Hg10 mi
6:35 AM30 °FOvercast.6 mph86%30.23 "Hg10 mi
6:15 AM30 °FOvercast.6 mph86%30.23 "Hg10 mi
5:55 AM30 °FOvercast.5 mph86%30.22 "Hg10 mi
5:35 AM30 °FOvercast.6 mph86%30.22 "Hg10 mi
5:15 AM30 °FOvercast.5 mph86%30.23 "Hg9 mi
4:55 AM30 °FOvercast.5 mph86%30.23 "Hg10 mi
4:35 AM30 °FOvercast.5 mph86%30.23 "Hg10 mi
4:15 AM30 °FOvercast.3 mph86%30.23 "Hg10 mi
3:55 AM30 °FOvercast.5 mph86%30.23 "Hg10 mi
3:35 AM30 °FOvercast.3 mph93%30.23 "Hg10 mi
3:15 AM30 °FOvercast.5 mph93%30.23 "Hg10 mi
Weather by CustomWeather, © 2014

See weather overviewHow to use our weather pages